Location: Engelbostel
(52.4476°N, 9.6604°E)
Time: 22:39:31
(UTC+00:00)

Daily predictions for brighter satellites

Satellite Brightness Start Highest point End
(mag) Time Altitude Azimuth Time Altitude Azimuth Time Altitude Azimuth
Cosmos 1626 Rocket 3.9 15:39:50 10° N 15:43:58 41° ENE 15:48:02 10° SE
Cosmos 2084 3.4 15:40:43 10° SW 15:44:57 88° NNW 15:49:06 10° NE
IGS 5A 3.7 15:41:54 10° SE 15:45:39 43° ENE 15:49:27 10° N
Cosmos 2227 Rocket 3.0 15:41:09 10° NNW 15:46:06 30° NE 15:51:04 10° ESE
Cosmos 1892 Rocket 4.0 15:43:51 10° NNW 15:48:18 69° W 15:52:43 10° S
NOSS 2-2 (D) 4.2 15:48:25 10° S 15:51:10 24° SE 15:53:41 10° ENE
Cosmos 2369 Rocket 3.1 15:46:14 10° WSW 15:51:39 46° NW 15:57:09 10° NNE
Cosmos 2084 Rocket 3.7 15:47:50 10° NW 15:51:56 46° NNE 15:56:00 10° ESE
Cosmos 1943 Rocket 4.2 15:49:07 10° WNW 15:52:21 15° NNW 15:55:33 10° NNE
Cosmos 724 4.4 15:47:21 10° NW 15:53:27 65° NE 15:59:21 10° SE
Thor Agena Rocket 3.7 15:49:32 10° SE 15:54:35 52° ENE 15:59:35 10° N
BlueWalker 3 3.1 15:52:01 10° W 15:55:28 42° SSW 15:58:55 10° SE
Meteor 1-28 Rocket 3.6 15:55:59 10° NNE 15:59:06 34° E 16:02:11 10° SSE
Cosmos 1356 Rocket 3.3 15:55:12 10° S 15:59:13 68° E 16:03:18 10° NNE
Cosmos 2026 Rocket 4.3 15:54:06 10° NNW 16:00:19 74° W 16:06:35 10° S
Cosmos 2278 Rocket 4.2 15:58:41 10° WNW 16:01:58 15° NNW 16:05:16 10° NNE
Cosmos 1544 Rocket 4.1 16:00:07 10° SSE 16:04:13 39° E 16:08:21 10° NNE
Cosmos 1484 Rocket 2.5 16:01:22 10° SSE 16:04:53 85° ENE 16:08:25 10° NNW
Cosmos 1697 Rocket 4.2 16:02:08 10° SE 16:05:40 17° E 16:09:00 11° ENE
IRS-1C 4.4 16:00:45 10° SE 16:05:46 44° ENE 16:10:48 10° N
NOSS 2-2 (E) 4.0 16:02:58 10° S 16:05:48 26° SE 16:08:05 12° ENE
Intercosmos 24 3.7 16:04:12 10° N 16:08:17 69° ENE 16:11:49 10° SSE
Cosmos 405 Rocket 2.2 16:05:10 10° NNW 16:08:27 84° E 16:11:41 10° SSE
Cosmos 1634 Rocket 4.0 16:04:09 10° S 16:10:19 77° E 16:16:30 10° NNE
Okean 1-7 Rocket 4.3 16:06:39 10° N 16:10:35 31° ENE 16:14:29 10° SE
Lacrosse 5 rocket 1.0 16:09:29 10° WSW 16:13:15 83° NNW 16:16:22 14° ENE
CENTAUR R/B 2.7 16:12:19 10° SW 16:18:10 75° NW 16:25:22 11° NE
Cosmos 1461 4.3 16:15:24 10° SSE 16:18:11 19° ESE 16:20:09 14° E
Meteor 1-20 Rocket 4.3 16:14:19 10° N 16:19:40 51° ENE 16:24:59 10° SSE
Cosmos 1602 Rocket 3.6 16:18:04 10° N 16:22:25 53° ENE 16:26:40 10° SSE
Cosmos 1455 Rocket 4.0 16:18:24 10° SSW 16:22:35 48° WNW 16:26:51 10° N
Cosmos 2279 Rocket 4.0 16:18:46 10° S 16:24:55 71° E 16:31:09 10° NNE
IRIDIUM 103 4.5 16:22:28 10° N 16:27:36 53° E 16:32:42 10° SSE
SMAP 3.0 16:26:31 10° SSE 16:31:10 80° ENE 16:35:51 10° NNW
ERS-1 4.5 16:26:56 10° SE 16:31:49 56° ENE 16:36:42 10° N
UNK 3.8 16:27:28 10° NNE 16:31:59 54° E 16:36:28 10° S
Cosmos 1656 3.7 16:27:03 10° SSW 16:32:37 66° ESE 16:37:56 12° NE
YAOGAN 1 3.6 16:31:42 10° ESE 16:35:08 24° ENE 16:38:34 10° N
Cosmos 1867 3.5 16:30:10 10° NW 16:35:39 74° NE 16:41:06 10° SE
Cosmos 2228 3.4 16:31:58 10° SSW 16:36:10 63° WNW 16:40:24 10° N
NOSS 2-2 (C) 2.8 16:33:06 10° SW 16:36:12 65° NW 16:38:05 20° NE
Landsat 7 3.7 16:32:01 10° SSE 16:36:39 71° ENE 16:41:19 10° N
SAR-Lupe-4 3.5 16:33:24 10° SSE 16:36:56 64° ENE 16:40:28 10° N
Cosmos 1486 Rocket 4.1 16:32:35 10° S 16:37:41 58° ESE 16:42:24 12° NNE
NOSS 7 (H) 3.9 16:35:38 10° NW 16:38:33 63° NE 16:41:17 12° ESE
Cosmos 2297 Rocket 2.4 16:33:48 10° NNW 16:39:29 77° WSW 16:45:08 10° SSE
USA 290 2.4 16:36:18 10° NNW 16:39:35 75° WSW 16:42:49 10° SSE
USA 215 3.4 16:35:28 16° ENE 16:40:48 61° N 16:47:15 10° WNW
Cosmos 2180 Rocket 4.4 16:36:23 10° S 16:42:27 68° E 16:48:35 10° NNE
Cosmos 1953 Rocket 4.3 16:41:15 10° N 16:45:12 31° ENE 16:49:10 10° SE
Resurs 01 Rocket 3.7 16:47:36 12° NNE 16:47:36 12° NNE 16:48:06 10° NNE
SAR-Lupe-1 4.0 16:42:24 10° SSE 16:45:59 70° ENE 16:49:36 10° N
IRIDIUM 106 4.2 16:40:45 10° N 16:45:59 73° E 16:51:12 10° S
Cosmos 1782 2.6 16:42:56 10° SSW 16:46:32 82° W 16:50:10 10° N
ATLAS CENTAUR R/B 2.7 16:43:40 10° WNW 16:46:35 31° WSW 16:49:25 10° S
CZ-4C R/B 3.0 16:40:51 10° NW 16:47:34 86° SW 16:56:03 10° SE
Cosmos 1607 4.3 16:42:37 10° NW 16:48:49 70° SW 16:55:04 10° SSE
Cosmos 1733 4.1 16:47:51 10° NW 16:49:06 19° W 16:50:21 10° SW
CZ-2D R/B 2.6 16:49:21 10° SSE 16:52:29 89° S 16:55:40 10° NNW
Meteor 1-25 Rocket 4.2 16:49:11 10° N 16:55:02 74° ENE 17:00:49 10° SSE
IRS-P3 4.0 16:50:11 10° SSE 16:55:29 75° ENE 17:00:49 10° NNW
Lacrosse 4 Rocket 2.9 16:52:39 10° W 16:56:12 28° NW 16:59:05 13° NNE
Cosmos 1825 Rocket 3.5 16:51:53 10° N 16:56:12 58° ENE 17:00:27 10° SSE
Cosmos 2219 3.7 16:50:56 10° NNW 16:56:15 37° NE 16:59:37 20° E
ARIANE 5 R/B 2.6 16:52:11 10° SSE 16:57:15 80° WSW 17:02:26 10° NNW
Cosmos 2266 Rocket 3.9 16:52:19 10° N 16:58:32 88° ENE 17:04:37 10° S
Meteor 1-5 Rocket 4.1 16:57:17 10° N 17:02:34 57° ENE 17:07:53 10° SSE
Cosmos 2098 Rocket 3.3 16:58:51 10° SSW 17:02:59 72° WNW 17:07:54 10° N
Cosmos 2151 3.3 16:59:40 10° NNW 17:03:47 65° W 17:07:55 10° S
Cosmos 1743 3.6 17:01:22 10° NNW 17:04:28 41° W 17:07:32 10° SSW
SPOT 1/Viking Rocket 3.5 17:02:03 10° SSE 17:07:11 65° ENE 17:12:22 10° N
Cosmos 1980 Rocket 3.2 17:03:30 10° SSE 17:07:56 24° ESE 17:08:01 24° ESE
Cosmos 1844 Rocket 3.9 17:06:15 10° NNW 17:10:38 22° NE 17:10:59 22° NE
SL-16 R/B 3.4 17:08:39 10° N 17:14:38 50° WNW 17:20:34 10° SW
Cosmos 2263 Rocket 2.1 17:12:16 10° NNW 17:17:55 64° NE 17:23:09 12° SE
NOSS 3-2 (C) 3.1 17:15:09 10° SSW 17:20:14 69° SE 17:23:02 32° NE
NOSS 3-2 (A) 3.5 17:15:11 10° WSW 17:20:24 66° NW 17:24:05 25° NE
GEOS 3 Rocket 3.8 17:19:36 26° NE 17:22:45 75° NW 17:28:07 10° SW
CZ-4 R/B 4.2 17:20:07 10° SSE 17:24:03 88° WSW 17:28:02 10° NNW
MOS 1 Rocket 3.9 17:19:42 10° S 17:24:34 65° W 17:29:45 10° NNW
Cosmos 1076 Rocket 3.3 17:21:15 10° N 17:25:35 74° E 17:29:52 10° SSE
BREEZE M DEB (TANK) 3.9 17:24:19 10° SW 17:25:20 18° SSW 17:25:20 18° SSW
Cosmos 1933 3.2 17:25:16 10° SSW 17:29:06 82° W 17:30:45 33° N
Cosmos 2227 Rocket 2.4 17:25:01 10° NW 17:30:39 71° WSW 17:36:16 10° SSE
Cosmos 1538 Rocket 3.9 17:26:21 10° NNW 17:31:38 72° ENE 17:36:28 13° SSE
Cosmos 1606 Rocket 3.5 17:28:11 10° S 17:32:35 86° W 17:35:24 23° N
Cosmos 2360 4.5 17:28:04 10° SW 17:33:47 67° NW 17:37:25 23° NNE
PSLV R/B 3.2 17:36:04 46° SE 17:37:08 73° ENE 17:41:12 10° N
Cosmos 2369 Rocket 4.3 17:33:32 10° WNW 17:37:10 17° NNW 17:40:31 11° NNE
COSMO-SKYMED 1 3.3 17:39:14 34° SSE 17:39:14 34° SSE 17:41:51 10° S
CZ-2D R/B 3.4 17:33:44 10° SSE 17:37:56 82° WSW 17:42:07 10° NNW
Cosmos 1943 Rocket 4.3 17:37:03 10° NNW 17:38:38 11° N 17:39:20 11° NNE
NOSS 2-2 (D) 4.0 17:37:18 10° WSW 17:40:03 34° NW 17:40:03 34° NW
Cosmos 1244 Rocket 4.4 17:34:31 10° N 17:40:47 62° ENE 17:46:57 10° SSE
SL-19 R/B 4.1 17:36:14 10° SSE 17:41:37 82° ENE 17:47:20 10° NNW
Resurs 1-3 3.4 17:37:39 10° SSE 17:41:58 88° ENE 17:46:18 10° NNW
Cosmos 1503 Rocket 4.2 17:38:06 10° SW 17:43:20 69° WNW 17:46:10 27° NNE
BREEZE-M DEB (TANK) 4.2 17:40:15 10° W 17:43:51 62° S 17:48:33 28° ESE
Meteor 2-20 4.3 17:42:09 10° S 17:48:17 77° E 17:54:09 11° NNE
Cosmos 2278 Rocket 4.3 17:46:36 10° NNW 17:48:40 12° N 17:49:06 12° N
Cosmos 1697 Rocket 2.6 17:43:11 10° SSW 17:48:48 87° ESE 17:50:45 43° NNE
Lacrosse 5 rocket 2.1 17:47:03 10° WNW 17:49:58 37° NNW 17:49:58 37° NNW
Cosmos 1354 Rocket 4.0 17:46:17 10° SSW 17:51:33 80° WNW 17:53:34 39° NNE
BREEZE-M DEB (TANK) 4.1 17:49:14 10° W 17:52:59 88° S 17:57:03 36° E
Cosmos 1461 3.0 17:50:39 10° SW 17:54:18 66° WNW 17:54:18 66° WNW
Spot 4 Rocket 4.2 17:50:40 10° S 17:55:45 70° WSW 18:00:54 10° NNW
IRAS Rocket 4.2 17:51:25 10° SSE 17:56:55 80° WSW 18:02:26 10° NNW
Cosmos 1726 Rocket 3.9 17:53:17 10° SSW 17:57:55 68° WNW 17:59:49 34° N
SL-08 R/B 4.4 17:52:46 10° N 17:59:05 69° ENE 18:05:24 10° SSE
Cosmos 1655 Rocket 4.4 17:53:36 10° NNW 17:59:47 64° W 18:05:54 10° S
SKYMED 2 3.7 17:59:36 56° NNW 18:00:22 71° WNW 18:04:41 10° SSW
Gbstr 26 Del rocket 4.1 18:00:16 10° SW 18:02:38 30° SSW 18:02:38 30° SSW
Meteor 2-10 4.2 18:01:50 10° NNW 18:07:08 73° W 18:12:37 10° S
CENTAUR R/B 3.7 18:03:51 10° W 18:09:55 39° NNW 18:12:27 31° NNE
Meteor 2-20 Rocket 4.3 18:04:11 10° S 18:10:26 80° E 18:12:30 44° NNE
YAOGAN 1 3.4 18:06:37 10° S 18:10:44 48° W 18:14:54 10° NNW
Cosmos 923 Rocket 4.4 18:08:40 10° NNW 18:12:38 51° N 18:12:38 51° N
USA 281 4.0 18:17:15 35° NNE 18:17:15 35° NNE 18:21:53 10° NNW
Cosmos 2082 3.6 18:10:59 10° NNW 18:16:44 89° ENE 18:17:04 81° SSE
Meteor 1-26 Rocket 4.5 18:14:00 10° S 18:18:03 52° S 18:18:03 52° S
USA 238 DEB 3.5 18:14:20 10° SSW 18:19:57 61° SSE 18:19:57 61° SSE
USA 238 3.6 18:14:27 10° SSW 18:20:02 60° SSE 18:20:02 60° SSE
Resurs 01 Rocket 4.0 18:25:00 14° NNW 18:25:00 14° NNW 18:25:39 10° NNW
USA 215 3.1 18:22:49 69° ENE 18:23:35 78° NNE 18:30:09 10° WNW
Lacrosse 4 Rocket 4.2 18:34:21 10° NNW 18:34:34 10° NNW 18:34:34 10° NNW
Cosmos 2219 3.8 18:35:03 10° NW 18:40:38 54° WSW 18:41:35 49° SSW
Cosmos 1980 Rocket 2.9 18:45:45 10° SW 18:49:48 47° SW 18:49:48 47° SW
Cosmos 1844 Rocket 4.1 18:49:48 10° NNW 18:52:37 30° NNW 18:52:37 30° NNW
Cosmos 2263 Rocket 4.0 18:56:43 10° NW 19:01:27 28° WSW 19:04:58 15° SSW
NOSS 3-2 (C) 4.4 19:06:15 10° W 19:10:27 39° NW 19:10:27 39° NW
CENTAUR R/B 4.3 19:55:37 10° NW 19:59:34 30° NNW 19:59:34 30° NNW
